Flag for U.S.A. Weather past 2 weeks in Kalispell, Montana, U.S.A.

Now
18 °F

Ice fog.


Feels Like: 10 °F
Forecast: 24 / 39 °F
Wind: 6 mph from North

Location: Kalispell - Glacier Park International

Current Time: Jan 28, 2015 at 12:01:37 AM

Latest Report: Jan 27, 2015 at 10:55 PM


Visibility: 4 mi

Pressure: 30.11 "Hg

Humidity: 96%

Dew point: 17 °F

Location of KalispellLocation

Historic Weather in Kalispell — Graph

°F

Kalispell temperature yesterday

Maximum temperature yesterday: 38 °F (at 2:55 PM)
Minimum temperature yesterday: 16 °F (at 6:55 AM)
Average temperature yesterday: 23 °F

Past Weeks' High & Low Weather Summary

 TemperatureHumidityPressure
High45 °F (Jan 24, 12:55 PM)100% (Jan 14, 8:04 PM)30.59 "Hg (Jan 14, 8:04 PM)
Low2 °F (Jan 21, 7:55 AM)57% (Jan 18, 4:55 PM)29.82 "Hg (Jan 18, 5:04 AM)
Average27 °F88%30.29 "Hg
* Reported Jan 12 10:55 PM — Jan 27 10:55 PM, Kalispell, Weather by CustomWeather, © 2014

Note: Actual official high and low records may vary slightly from our data, if they occured in-between our weather recording intervals... More about our weather records

Advertising

Kalispell weather history for previous 24 hours

 ConditionsComfort  
Time TempWeatherWind HumidityBarometerVisibility
10:55 PM
Jan 27
18 °FIce fog.6 mph96%30.11 "Hg4 mi
10:03 PM20 °FIce fog.6 mph92%29.98 "Hg1 mi
10:01 PM21 °FIce fog.6 mph88%29.98 "Hg2 mi
8:55 PM21 °FIce fog.3 mph100%30.10 "Hg5 mi
7:55 PM23 °FIce fog.No wind92%30.09 "Hg5 mi
6:55 PM25 °FIce fog.No wind96%30.07 "Hg6 mi
5:55 PM29 °FIce fog.No wind93%30.04 "Hg6 mi
4:55 PM33 °FSunny.No wind85%30.03 "Hg8 mi
3:55 PM35 °FSunny.No wind78%30.02 "Hg9 mi
2:55 PM38 °FSunny.No wind70%30.02 "Hg9 mi
1:55 PM34 °FSunny.No wind82%30.05 "Hg9 mi
12:55 PM32 °FSunny.No wind85%30.07 "Hg9 mi
11:55 AM29 °FSunny.No wind89%30.09 "Hg10 mi
10:55 AM27 °FSunny.No wind89%30.10 "Hg8 mi
9:55 AM23 °FSunny.No wind92%30.10 "Hg10 mi
8:55 AM18 °FScattered clouds.3 mph88%30.11 "Hg10 mi
7:55 AM17 °FIce fog.No wind92%30.11 "Hg0 mi
6:55 AM16 °FIce fog.No wind92%30.10 "Hg0 mi
6:02 AM18 °FIce fog.No wind92%29.99 "Hg6 mi
5:55 AM17 °FIce fog.No wind92%30.09 "Hg4 mi
4:55 AM19 °FPassing clouds.No wind96%30.09 "Hg8 mi
4:00 AM18 °FIce fog.No wind92%30.00 "Hg1 mi
2:55 AM19 °FIce fog.No wind96%30.09 "Hg2 mi
1:55 AM18 °FIce fog.No wind96%30.09 "Hg1 mi
1:02 AM20 °FIce fog.No wind100%30.02 "Hg0 mi
12:55 AM20 °FIce fog.No wind96%30.10 "Hg1 mi
12:02 AM21 °FIce fog.No wind92%30.02 "Hg1 mi
Weather by CustomWeather, © 2014

See weather overviewHow to use our weather pages